Weather observations for the past three days for
Corpus Christi, Corpus Christi International Airport
Imperial (Metric)
Date Time (cdt) Wind (mph) Vis. (mi.) Weather Sky Cond. Temperature (ºF) Relative Humidity Wind Chill (°F) Heat Index (°F) Pressure Precipitation (in)
Air Dwpt 6 hour altimeter (in) sea level (mb) 1 hr 3 hr 6 hr
Max. Min.
15 21:51 SE 12 10.00 Partly Cloudy FEW026 SCT029 86 75 70% 95 29.83 1010.0
15 20:51 SE 12 10.00 A Few Clouds FEW030 FEW250 87.1 73.9 65% 95 29.82 1009.5
15 19:51 SE 16 10.00 A Few Clouds FEW030 FEW041 89.1 71.1 55% 95 29.81 1009.4
15 18:51 SE 17 G 25 10.00 A Few Clouds FEW030 91 70 97 91 50% 97 29.81 1009.1
15 17:51 SE 18 10.00 A Few Clouds FEW030 FEW250 93 73 52% 102 29.8 1009.0
15 16:51 E 17 G 28 10.00 A Few Clouds FEW036 FEW050 FEW250 93.9 73.9 52% 104 29.82 1009.5
15 15:51 E 16 G 24 10.00 A Few Clouds FEW036 FEW055 96.1 70 43% 103 29.83 1010.1
15 14:51 SE 17 10.00 Partly Cloudy FEW036 SCT050 SCT070 96.1 73.9 49% 107 29.85 1010.6
15 13:51 E 17 10.00 Partly Cloudy FEW039 SCT047 SCT070 96.1 73.9 49% 107 29.86 1011.1
15 12:51 SE 10 G 17 10.00 Partly Cloudy FEW037 SCT047 SCT070 95 73 95 79 49% 105 29.88 1011.8
15 11:51 SE 8 10.00 Partly Cloudy FEW034TCU SCT041 SCT080 95 75 53% 107 29.9 1012.2
15 10:51 S 12 10.00 Mostly Cloudy FEW027TCU SCT038 BKN070 BKN200 91.9 75 58% 103 29.9 1012.3
15 09:51 S 7 10.00 Mostly Cloudy SCT028TCU SCT038 BKN070 89.1 75.9 65% 100 29.91 1012.5
15 08:51 SE 9 10.00 Partly Cloudy FEW024 FEW035 SCT070 88 75.9 68% 99 29.9 1012.5
15 07:51 SE 5 10.00 Partly Cloudy FEW020 SCT025 SCT060 84 77 80% 94 29.89 1012.0
15 06:51 SE 5 10.00 Partly Cloudy FEW018 SCT027 SCT034 79 75 84.9 79 88% 83 29.88 1011.7
15 05:51 SE 6 10.00 A Few Clouds FEW016 FEW026 79 75 88% 83 29.87 1011.4
15 04:51 SE 5 10.00 A Few Clouds FEW015 79 75 88% 83 29.87 1011.2
15 03:51 SE 5 10.00 A Few Clouds FEW015 80.1 75 85% 85 29.87 1011.4
15 02:51 SE 7 10.00 A Few Clouds FEW015 FEW022 82 75.9 82% 89 29.88 1011.7
15 01:51 SE 6 10.00 A Few Clouds FEW017 FEW029 82.9 75.9 79% 91 29.9 1012.4
15 00:51 SE 8 10.00 Partly Cloudy FEW018 FEW026 SCT033 84.9 77 91.9 84 77% 95 29.91 1012.6
14 23:51 SE 8 10.00 A Few Clouds FEW017 FEW023 84.9 75.9 75% 94 29.9 1012.5
14 22:51 SE 10 10.00 A Few Clouds FEW018 FEW025 86 75.9 72% 96 29.89 1012.0
14 21:51 SE 10 10.00 A Few Clouds FEW017 FEW023 FEW250 86 75 70% 95 29.88 1011.6
14 20:51 SE 13 10.00 A Few Clouds FEW018 FEW020 FEW250 87.1 75 67% 97 29.87 1011.2
14 19:51 E 16 10.00 Partly Cloudy FEW018 FEW021 SCT250 89.1 73.9 61% 98 29.86 1010.8
14 18:51 E 16 10.00 Mostly Cloudy FEW016 FEW024 FEW030 BKN250 91.9 72 98.1 91.9 52% 100 29.85 1010.5
14 17:51 E 16 10.00 Partly Cloudy FEW013 FEW030 FEW050 SCT250 93.9 71.1 48% 101 29.84 1010.5
14 16:51 E 16 10.00 A Few Clouds FEW012 FEW033 FEW060 95 71.1 46% 102 29.85 1010.5
14 15:51 E 15 10.00 A Few Clouds FEW008 FEW035 FEW060 96.1 72 46% 105 29.86 1011.1
14 14:51 E 14 10.00 A Few Clouds FEW035 FEW050 FEW070 96.1 73.9 49% 107 29.88 1011.6
14 13:51 E 13 10.00 A Few Clouds FEW040 FEW055 FEW080 97 71.1 43% 105 29.89 1012.1
14 12:51 E 9 10.00 Partly Cloudy FEW039TCU SCT049 97 72 97 78.1 45% 106 29.9 1012.4
14 11:51 Vrbl 5 10.00 Mostly Cloudy FEW031 SCT038TCU BKN049 93.9 73.9 52% 104 29.91 1012.7
14 10:51 NE 6 10.00 Mostly Cloudy FEW026 SCT035TCU BKN055 91.9 75 58% 103 29.92 1013.1
14 09:51 Calm 10.00 Partly Cloudy FEW025 SCT038TCU SCT055 90 75 62% 100 29.93 1013.5
14 08:51 S 5 10.00 A Few Clouds FEW022 FEW035TCU FEW080 88 78.1 73% 102 29.93 1013.5
14 07:51 Calm 10.00 A Few Clouds FEW023TCU FEW036 FEW250 82.9 78.1 85% 93 29.91 1012.8
14 06:51 Calm 10.00 A Few Clouds FEW024TCU FEW036 78.1 73.9 81 78.1 87% 81 29.9 1012.3
14 05:51 Calm 10.00 A Few Clouds FEW022 FEW029 78.1 73.9 87% 81 29.89 1012.1
14 04:51 Calm 10.00 A Few Clouds FEW022 FEW028 78.1 73.9 87% 81 29.88 1011.8
14 03:51 Calm 10.00 A Few Clouds FEW024 79 73.9 85% 83 29.88 1011.8
14 02:51 Calm 10.00 A Few Clouds FEW024 79 73.9 85% 83 29.89 1011.9
14 01:51 S 5 10.00 A Few Clouds FEW024 79 75 88% 83 29.88 1011.8
14 00:51 SE 6 10.00 A Few Clouds FEW025 81 75 91.9 80.1 82% 87 29.89 1012.0
13 23:51 SE 8 10.00 A Few Clouds FEW026 82.9 75 77% 90 29.89 1011.9
13 22:51 SE 8 10.00 A Few Clouds FEW028 84.9 73.9 70% 92 29.88 1011.8
13 21:51 SE 8 10.00 A Few Clouds FEW025 FEW033 86 75 70% 95 29.87 1011.5
13 20:51 SE 13 10.00 A Few Clouds FEW023 FEW150 FEW250 87.1 73.9 65% 95 29.86 1011.1
13 19:51 E 14 10.00 A Few Clouds FEW028 FEW170 90 73 58% 98 29.86 1010.9
13 18:51 E 15 10.00 A Few Clouds FEW030 FEW150 FEW250 91.9 73.9 98.1 91.9 56% 102 29.84 1010.4
13 17:51 E 14 10.00 A Few Clouds FEW034 FEW180 FEW250 93.9 73 51% 103 29.84 1010.4
13 16:51 E 13 G 21 10.00 A Few Clouds FEW035 FEW170 FEW250 96.1 73.9 49% 107 29.85 1010.6
13 15:51 E 10 10.00 A Few Clouds FEW036 FEW046 FEW170 97 73 46% 107 29.86 1011.0
13 14:51 E 8 10.00 Partly Cloudy FEW037 FEW045TCU FEW065 SCT130 SCT250 96.1 75 51% 108 29.88 1011.5
13 13:51 E 8 10.00 Mostly Cloudy FEW034 SCT039TCU SCT055 BKN130 BKN250 95 75.9 54% 108 29.89 1012.0
13 12:51 E 6 10.00 Mostly Cloudy FEW028 SCT039TCU BKN060 BKN130 BKN250 97 73.9 98.1 77 48% 108 29.9 1012.5
13 11:51 SW 5 10.00 Mostly Cloudy FEW024 SCT035TCU SCT060 SCT130 BKN250 93.9 75.9 56% 107 29.91 1012.7
13 10:51 S 3 10.00 Mostly Cloudy FEW023 SCT030 SCT035 BKN130 BKN250 89.1 75.9 65% 100 29.92 1013.0
13 09:51 S 5 10.00 Mostly Cloudy FEW017 SCT026 SCT045 BKN160 BKN250 87.1 75.9 70% 98 29.92 1013.1
13 08:51 Calm 10.00 Partly Cloudy FEW022 FEW031 SCT095 SCT160 84.9 77 77% 95 29.91 1012.8
13 06:51 S 3 10.00 A Few Clouds FEW022 FEW060 FEW110 77 75 81 77 94% 78 29.87 1011.4
13 05:51 S 5 10.00 A Few Clouds FEW022 FEW060 FEW110 79 75.9 90% 83 29.86 1010.9
13 04:51 S 5 10.00 Partly Cloudy FEW022 SCT060 SCT110 79 75.9 90% 83 29.86 1010.9
13 03:51 Calm 10.00 A Few Clouds FEW022 79 75.9 90% 83 29.86 1010.8
13 02:52 S 6 10.00 A Few Clouds FEW022 79 75.9 90% 83 29.86 1010.9
13 01:51 SE 6 10.00 A Few Clouds FEW022 80.1 75.9 87% 85 29.87 1011.4
13 00:51 SE 5 10.00 A Few Clouds FEW022 81 75.9 88 81 85% 87 29.88 1011.7
12 23:51 SE 6 10.00 A Few Clouds FEW024 81 75.9 85% 87 29.89 1012.0
12 22:51 SE 7 10.00 A Few Clouds FEW023 FEW250 84 75.9 77% 93 29.89 1011.9
Date Time (cdt) Wind (mph) Vis. (mi.) Weather Sky Cond. Air Dwpt Max. Min. Relative Humidity Wind Chill (°F) Heat Index (°F) altimeter (in) sea level (mb) 1 hr 3 hr 6 hr
6 hour
Temperature (ºF) Pressure Precipitation (in)